Weather History for Keahole Point, HI

Change the Weather History Date:

Wednesday, October 26, 2011

  Actual Average Record
Temperature  
Mean Temperature 78 °F -  
Max Temperature 82 °F 83 °F 91 °F (1982)
Min Temperature 73 °F 72 °F 70 °F (1983)
Cooling Degree Days 12    
Growing Degree Days 28 (Base 50)    
Moisture  
Dew Point 68 °F    
Average Humidity 72    
Maximum Humidity 88    
Minimum Humidity 65    
Precipitation  
Precipitation 0.21 in - - ()
Sea Level Pressure  
Sea Level Pressure 29.98 in    
Wind  
Wind Speed 8 mph (West)    
Max Wind Speed 14 mph    
Max Gust Speed -    
Visibility 10 miles    
Events Rain    
Averages and records for this station are not official NWS values.
T = Trace of Precipitation, MM = Missing Value Source: NWS Daily Summary

Daily Weather History Graph

Daily Weather History Graph

Search for Another Location

Airport:

Trip Planner

Search our weather history database for the weather conditions in past years. The results will help you decide how hot, cold, wet, or windy it might be!

Date:

Astronomy

Oct. 26, 2011 Rise Set
Actual Time 6:22 AM HST 5:53 PM HST
Civil Twilight 6:00 AM HST 6:15 PM HST
Nautical Twilight 5:34 AM HST 6:41 PM HST
Astronomical Twilight 5:08 AM HST 7:07 PM HST
Moon 6:16 AM HST (10/26) 5:55 PM HST (10/26)
Length of Visible Light 12h 15m
Length of Day
11h 30m
New Moon, 0% of the Moon is Illuminated
Oct 26
New Moon
Nov 2
First Quarter
Nov 10
Full
Nov 18
Last Quarter
Nov 24
New

Hourly Weather History & Observations

Time (HST) Temp. Heat Index Dew Point Humidity Pressure Visibility Wind Dir Wind Speed Gust Speed Precip Events Conditions
12:53 AM 75.9 °F - 66.0 °F 71% 30.01 in 10.0 mi East 4.6 mph - N/A   Clear
1:53 AM 75.9 °F - 66.9 °F 74% 29.99 in 10.0 mi ENE 4.6 mph - N/A   Partly Cloudy
2:46 AM 77.0 °F - 68.0 °F 74% 29.97 in 10.0 mi North 12.7 mph - N/A   Mostly Cloudy
2:53 AM 75.9 °F - 69.1 °F 79% 29.97 in 10.0 mi North 11.5 mph - 0.00 in Rain Light Rain
3:38 AM 73.4 °F - 69.8 °F 88% 29.97 in 10.0 mi North 9.2 mph - 0.19 in Rain Light Rain
3:53 AM 73.0 °F - 69.1 °F 87% 29.97 in 10.0 mi NNE 12.7 mph - 0.19 in   Overcast
4:53 AM 73.9 °F - 66.9 °F 79% 29.97 in 10.0 mi North 4.6 mph - N/A   Overcast
5:53 AM 73.9 °F - 68.0 °F 82% 29.98 in 10.0 mi East 4.6 mph - N/A   Mostly Cloudy
6:53 AM 73.0 °F - 66.9 °F 81% 30.00 in 10.0 mi Calm Calm - N/A   Overcast
7:53 AM 75.9 °F - 68.0 °F 76% 30.00 in 10.0 mi SE 6.9 mph - N/A   Clear
8:53 AM 79.0 °F - 68.0 °F 69% 30.01 in 10.0 mi South 5.8 mph - N/A   Clear
9:53 AM 80.1 °F 82.9 °F 69.1 °F 69% 30.01 in 10.0 mi SSW 9.2 mph - N/A   Clear
10:53 AM 81.0 °F 84.1 °F 69.1 °F 67% 30.00 in 10.0 mi SW 8.1 mph - N/A   Clear
11:53 AM 82.0 °F 85.5 °F 69.1 °F 65% 29.98 in 10.0 mi SSW 10.4 mph - N/A   Clear
12:53 PM 82.9 °F 87.0 °F 70.0 °F 65% 29.96 in 10.0 mi SSW 10.4 mph - N/A   Clear
1:53 PM 82.0 °F 85.5 °F 69.1 °F 65% 29.94 in 10.0 mi WSW 13.8 mph - N/A   Partly Cloudy
2:53 PM 82.0 °F 85.5 °F 69.1 °F 65% 29.93 in 10.0 mi WSW 10.4 mph - N/A   Clear
3:53 PM 81.0 °F 83.8 °F 68.0 °F 65% 29.94 in 10.0 mi WSW 10.4 mph - N/A   Partly Cloudy
4:53 PM 80.1 °F 82.9 °F 69.1 °F 69% 29.94 in 10.0 mi WSW 8.1 mph - N/A   Partly Cloudy
5:21 PM 80.6 °F 83.2 °F 68.0 °F 65% 29.94 in 10.0 mi WSW 9.2 mph - N/A   Mostly Cloudy
5:37 PM 80.6 °F 83.2 °F 68.0 °F 65% 29.95 in 10.0 mi WSW 9.2 mph - N/A   Mostly Cloudy
5:53 PM 80.1 °F 82.7 °F 68.0 °F 67% 29.96 in 10.0 mi WSW 8.1 mph - N/A   Scattered Clouds
6:53 PM 79.0 °F - 68.0 °F 69% 29.97 in 10.0 mi WSW 6.9 mph - N/A   Mostly Cloudy
7:53 PM 79.0 °F - 66.9 °F 66% 29.99 in 10.0 mi West 6.9 mph - N/A   Mostly Cloudy
8:53 PM 79.0 °F - 66.9 °F 66% 30.00 in 10.0 mi WSW 5.8 mph - N/A   Scattered Clouds
9:40 PM 78.8 °F - 66.2 °F 65% 30.00 in 10.0 mi West 8.1 mph - N/A   Overcast
9:53 PM 79.0 °F - 69.1 °F 72% 30.01 in 10.0 mi West 6.9 mph - N/A   Overcast
10:33 PM 77.0 °F - 66.2 °F 69% 30.00 in 10.0 mi NNE 4.6 mph - N/A   Overcast
10:53 PM 75.9 °F - 66.9 °F 74% 30.01 in 10.0 mi NNE 11.5 mph - 0.00 in Rain Light Rain
11:22 PM 75.2 °F - 68.0 °F 78% 30.00 in 10.0 mi NW 8.1 mph - 0.02 in Rain Light Rain
11:53 PM 75.0 °F - 66.9 °F 76% 30.01 in 10.0 mi NNE 9.2 mph - 0.02 in   Overcast